Weather History for KMYT - September, 2011

Change the Weather History Date:

Friday, September 2, 2011

  Actual Average Record
Temperature  
Mean Temperature 81 °F -  
Max Temperature 84 °F - - ()
Min Temperature 78 °F - - ()
Cooling Degree Days 16    
Growing Degree Days 31 (Base 50)    
Moisture  
Dew Point 76 °F    
Average Humidity 86    
Maximum Humidity 94    
Minimum Humidity 74    
Precipitation  
Precipitation 0.00 in - - ()
Sea Level Pressure  
Sea Level Pressure 29.72 in    
Wind  
Wind Speed 38 mph (SE)    
Max Wind Speed 50 mph    
Max Gust Speed 56 mph    
Visibility 3 miles    
Events Fog    
T = Trace of Precipitation, MM = Missing Value Source: NWS Daily Summary

Daily Weather History Graph

Daily Weather History Graph

Search for Another Location

Airport or City:

Trip Planner

Search our weather history database for the weather conditions in past years. The results will help you decide how hot, cold, wet, or windy it might be!

Date:

Astronomy

Sep. 02, 2011 Rise Set
Actual Time 6:37 AM CDT 7:18 PM CDT
Civil Twilight 6:13 AM CDT 7:42 PM CDT
Nautical Twilight 5:45 AM CDT 8:10 PM CDT
Astronomical Twilight 5:16 AM CDT 8:39 PM CDT
Moon 11:33 AM CDT (9/2) 10:30 PM CDT (9/2)
Length of Visible Light 13h 29m
Length of Day
12h 41m
Waxing Crescent, 28% of the Moon is Illuminated
Sep 2
Waxing Crescent
Sep 4
First Quarter
Sep 12
Full
Sep 20
Last Quarter
Sep 27
New

Hourly Weather History & Observations

Time (CDT) Temp. Heat Index Dew Point Humidity Pressure Visibility Wind Dir Wind Speed Gust Speed Precip Events Conditions
12:35 AM 78.8 °F - 75.2 °F 89% 29.80 in 2.0 mi SE 38.0 mph 44.9 mph N/A   Mostly Cloudy
12:55 AM 80.6 °F 87.1 °F 77.0 °F 89% 29.80 in 2.0 mi SE 36.8 mph 44.9 mph N/A   Mostly Cloudy
1:15 AM 80.6 °F 87.1 °F 77.0 °F 89% 29.80 in 4.0 mi SE 36.8 mph - N/A   Mostly Cloudy
1:35 AM 80.6 °F 87.1 °F 77.0 °F 89% 29.78 in 2.5 mi SE 42.6 mph 49.5 mph N/A   Mostly Cloudy
1:50 AM 78.8 °F - 75.2 °F 89% 29.79 in 0.5 mi SE 41.4 mph 52.9 mph N/A   Overcast
2:15 AM 80.6 °F 87.1 °F 77.0 °F 89% 29.79 in 1.8 mi SE 35.7 mph 43.7 mph N/A   Haze
2:35 AM 80.6 °F 86.2 °F 75.2 °F 84% 29.79 in 1.8 mi ESE 35.7 mph 41.4 mph N/A   Haze
2:45 AM 80.6 °F 87.1 °F 77.0 °F 89% 29.78 in 2.5 mi SE 38.0 mph 44.9 mph N/A   Haze
3:05 AM 82.4 °F 90.9 °F 77.0 °F 84% 29.77 in 3.0 mi SE 36.8 mph 46.0 mph N/A   Haze
3:55 AM 82.4 °F 88.2 °F 73.4 °F 74% 29.76 in 5.0 mi SE 36.8 mph 44.9 mph N/A   Haze
4:10 AM 82.4 °F 89.5 °F 75.2 °F 79% 29.76 in 2.5 mi SE 41.4 mph - N/A   Haze
4:35 AM 82.4 °F 89.5 °F 75.2 °F 79% 29.76 in 2.5 mi SE 38.0 mph - N/A   Haze
4:55 AM 82.4 °F 89.5 °F 75.2 °F 79% 29.76 in 4.0 mi SSE 36.8 mph - N/A   Haze
5:15 AM 82.4 °F 89.5 °F 75.2 °F 79% 29.76 in 5.0 mi SSE 40.3 mph 46.0 mph N/A   Haze
5:35 AM 82.4 °F 90.9 °F 77.0 °F 84% 29.76 in 4.0 mi SE 36.8 mph 44.9 mph N/A   Haze
5:50 AM 80.6 °F 86.2 °F 75.2 °F 84% 29.75 in 3.0 mi SSE 38.0 mph 44.9 mph N/A   Haze
6:15 AM 80.6 °F 87.1 °F 77.0 °F 89% 29.75 in 2.5 mi SSE 41.4 mph - N/A   Haze
6:35 AM 80.6 °F 86.2 °F 75.2 °F 84% 29.74 in 2.5 mi SSE 43.7 mph 50.6 mph N/A   Haze
7:10 AM 80.6 °F 86.2 °F 75.2 °F 84% 29.76 in 2.0 mi SSE 46.0 mph - N/A   Haze
7:20 AM 80.6 °F 86.2 °F 75.2 °F 84% 29.74 in 1.5 mi SE 47.2 mph - N/A   Haze
7:50 AM 80.6 °F 87.1 °F 77.0 °F 89% 29.76 in 1.2 mi SE 39.1 mph 48.3 mph N/A   Mostly Cloudy
8:10 AM 80.6 °F 87.1 °F 77.0 °F 89% 29.75 in 1.2 mi SSE 46.0 mph - N/A   Overcast
8:20 AM 78.8 °F - 75.2 °F 89% 29.76 in 0.5 mi SSE 35.7 mph 49.5 mph N/A   Overcast
9:25 AM 78.8 °F - 77.0 °F 94% 29.78 in 0.5 mi SSE 32.2 mph 46.0 mph N/A Fog Fog
9:50 AM 80.6 °F 86.2 °F 75.2 °F 84% 29.78 in 1.8 mi SSE 33.4 mph 41.4 mph N/A   Haze
10:15 AM 80.6 °F 86.2 °F 75.2 °F 84% 29.77 in 2.0 mi SE 34.5 mph - N/A   Haze
10:35 AM 80.6 °F 86.2 °F 75.2 °F 84% 29.76 in 1.8 mi SE 41.4 mph - N/A   Haze
11:15 AM 80.6 °F 86.2 °F 75.2 °F 84% 29.75 in 3.0 mi SE 32.2 mph 44.9 mph N/A   Haze
11:35 AM 80.6 °F 87.1 °F 77.0 °F 89% 29.74 in 2.0 mi SE 42.6 mph 51.8 mph N/A   Haze
11:55 AM 80.6 °F 87.1 °F 77.0 °F 89% 29.73 in 1.2 mi SE 49.5 mph - N/A   Overcast
12:05 PM 78.8 °F - 75.2 °F 89% 29.73 in 1.2 mi SE 48.3 mph 55.2 mph N/A   Overcast
12:35 PM 78.8 °F - 73.4 °F 83% 29.73 in 1.5 mi SE 39.1 mph 49.5 mph N/A   Haze
12:55 PM 80.6 °F 87.1 °F 77.0 °F 89% 29.73 in 1.2 mi SE 36.8 mph 47.2 mph N/A   Mostly Cloudy
1:15 PM 80.6 °F 87.1 °F 77.0 °F 89% 29.70 in 1.5 mi SE 48.3 mph 56.4 mph N/A   Haze
1:35 PM 80.6 °F 87.1 °F 77.0 °F 89% 29.70 in 1.2 mi SE 43.7 mph 55.2 mph N/A   Haze
1:55 PM 80.6 °F 87.1 °F 77.0 °F 89% 29.70 in 1.5 mi SE 36.8 mph 48.3 mph N/A   Haze
2:15 PM 80.6 °F 87.1 °F 77.0 °F 89% 29.69 in 0.2 mi SE 32.2 mph 43.7 mph N/A Fog Fog
2:35 PM 80.6 °F 88.1 °F 78.8 °F 94% 29.69 in 0.2 mi SSE 44.9 mph 50.6 mph N/A Fog Fog
2:55 PM 80.6 °F 87.1 °F 77.0 °F 89% 29.67 in 0.8 mi ESE 42.6 mph 50.6 mph N/A   Mostly Cloudy
3:15 PM 82.4 °F 90.9 °F 77.0 °F 84% 29.66 in 2.0 mi SE 42.6 mph 49.5 mph N/A   Haze
3:30 PM 78.8 °F - 77.0 °F 94% 29.66 in 0.2 mi SE 41.4 mph 49.5 mph N/A Fog Fog
3:50 PM 80.6 °F 87.1 °F 77.0 °F 89% 29.66 in 0.5 mi SSE 32.2 mph 50.6 mph N/A   Overcast
4:15 PM 78.8 °F - 75.2 °F 89% 29.66 in 1.2 mi South 27.6 mph 38.0 mph N/A   Haze
4:25 PM 80.6 °F 87.1 °F 77.0 °F 89% 29.65 in 1.5 mi SSE 27.6 mph 38.0 mph N/A   Overcast
5:10 PM 80.6 °F 87.1 °F 77.0 °F 89% 29.64 in 5.0 mi SSE 34.5 mph 41.4 mph N/A   Overcast
5:35 PM 80.6 °F 87.1 °F 77.0 °F 89% 29.65 in 2.5 mi SSE 34.5 mph - N/A   Mostly Cloudy
5:55 PM 82.4 °F 92.4 °F 78.8 °F 89% 29.64 in 3.0 mi SSE 33.4 mph 44.9 mph N/A   Haze
6:15 PM 84.2 °F 92.3 °F 75.2 °F 74% 29.63 in 7.0 mi SSE 35.7 mph 44.9 mph N/A   Mostly Cloudy
6:35 PM 84.2 °F 94.1 °F 77.0 °F 79% 29.64 in 9.0 mi SSE 28.8 mph 39.1 mph N/A   Mostly Cloudy
6:40 PM 84.2 °F 94.1 °F 77.0 °F 79% 29.64 in 8.0 mi SSE 27.6 mph 39.1 mph N/A   Mostly Cloudy
7:15 PM 84.2 °F 94.1 °F 77.0 °F 79% 29.62 in 10.0 mi SSE 36.8 mph - N/A   Mostly Cloudy
7:50 PM 84.2 °F 94.1 °F 77.0 °F 79% 29.63 in 9.0 mi SSE 38.0 mph 44.9 mph N/A   Mostly Cloudy
8:30 PM 82.4 °F 90.9 °F 77.0 °F 84% 29.63 in 1.5 mi SSE 35.7 mph 42.6 mph N/A   Haze
8:55 PM 82.4 °F 92.4 °F 78.8 °F 89% 29.63 in 4.0 mi SE 41.4 mph 51.8 mph N/A   Haze
9:15 PM 82.4 °F 92.4 °F 78.8 °F 89% 29.64 in 2.0 mi SSE 38.0 mph 48.3 mph N/A   Haze
9:35 PM 84.2 °F 96.1 °F 78.8 °F 84% 29.63 in 5.0 mi SSE 41.4 mph 48.3 mph N/A   Haze
9:55 PM 78.8 °F - 75.2 °F 89% 29.66 in 1.2 mi SSE 19.6 mph 29.9 mph N/A   Overcast
10:10 PM 82.4 °F 92.4 °F 78.8 °F 89% 29.64 in 3.0 mi SSE 31.1 mph 43.7 mph N/A   Overcast
10:35 PM 78.8 °F - 77.0 °F 94% 29.64 in 0.5 mi SSE 41.4 mph 48.3 mph N/A Fog Fog
11:15 PM 80.6 °F 88.1 °F 78.8 °F 94% 29.63 in 0.5 mi SSE 34.5 mph 44.9 mph N/A   Overcast